Location: Ar Ranvel
(48.3000°N, 4.8833°W)
Time: 20:50:02
(UTC+00:00)

Meteor 2-10 Rocket - Pass Details

Date: 30 October 2021
Orbit: 733 x 885 km, 81.2° (Epoch: 30 November)

Event Time Altitude Azimuth Distance (km) Brightness Sun altitude
Rises 20:10:05 0° 249° (WSW) 3,324 7.5 -31.4°
Reaches altitude 10° 20:14:07 10° 279° (W) 2,360 6.9 -32.0°
Maximum altitude 20:16:16 12° 303° (WNW) 2,180 6.6 -32.4°
Drops below altitude 10° 20:18:24 10° 327° (NNW) 2,327 6.5 -32.7°
Sets 20:22:19 0° 357° (N) 3,227 7.0 -33.3°
